Simultaneous Nadir Overpasses (SNOs) Predictions

Prediction of SNOs between NOAA-20 and NOAA-19 Satellite Orbit:

Table of predicted SNOs for the next 14.0 days since TLE Epoch: 8/30/2024
Index Date (NOAA-20) Time (NOAA-20) Lat,Lon (NOAA-20) SZA (NOAA-20 ) Date (NOAA-19) Time (NOAA-19) Lat,Lon (NOAA-19) SZA (NOAA-19 ) Distance(km) Time Diff (sec)
1 09/09/2024 21:39:09 -72.40, 27.48 112.42 09/09/2024 21:37:56 -72.38, 26.54 112.39 31.73 73
2 09/09/2024 22:29:59 72.64,-165.69 67.85 09/09/2024 22:28:44 72.64,-165.62 67.86 2.30 75
3 09/09/2024 23:20:44 -72.67, 1.57 112.11 09/09/2024 23:19:48 -72.66, 1.65 112.12 2.74 56
4 09/10/2024 00:11:29 72.65, 168.92 67.89 09/10/2024 00:10:41 72.67, 168.96 67.92 2.68 48
5 09/10/2024 01:02:14 -72.68, -23.82 112.07 09/10/2024 01:01:45 -72.69, -23.78 112.06 1.72 29
6 09/10/2024 01:52:59 72.67, 143.52 67.93 09/10/2024 01:52:39 72.65, 143.43 67.93 3.25 20
7 09/10/2024 02:43:44 -72.69, -49.22 112.03 09/10/2024 02:43:42 -72.72, -49.20 112.01 2.89 2
8 09/10/2024 03:34:30 72.73, 118.02 68.02 09/10/2024 03:34:35 72.73, 118.11 68.03 3.27 5
9 09/10/2024 04:25:15 -72.75, -74.73 111.94 09/10/2024 04:25:39 -72.75, -74.62 111.95 3.46 24
10 09/10/2024 05:16:00 72.74, 92.62 68.06 09/10/2024 05:16:33 72.71, 92.58 68.03 3.16 33
11 09/10/2024 06:06:45 -72.77,-100.12 111.90 09/10/2024 06:07:36 -72.78,-100.05 111.90 2.88 51
12 09/10/2024 06:57:30 72.75, 67.22 68.10 09/10/2024 06:58:30 72.74, 67.16 68.09 2.22 60
13 09/10/2024 07:48:18 -72.93,-125.84 111.70 09/10/2024 07:49:31 -72.91,-125.25 111.76 19.44 73
14 09/10/2024 08:39:10 73.27, 40.74 68.69 09/10/2024 08:40:18 73.22, 42.74 68.55 64.38 68



Historial Predications of SNOs between NOAA-20 and NOAA-19
